Location: Burla
(50.9568°N, 10.4983°E)
Time: 20:53:43
(UTC+00:00)

SL-23 DEB - Pass Details

Date: 18 January 2026
Orbit: 423 x 3435 km, 51.4° (Epoch: 17 February)

Event Time Altitude Azimuth Distance (km) Brightness Sun altitude
Exits shadow 05:57:50 15° 262° (W) 1,225 5.1 -11.3°
Maximum altitude 06:00:18 88° 347° (NNW) 439 3.3 -11.0°
Drops below altitude 10° 06:03:51 10° 82° (E) 1,717 7.4 -10.5°
Sets 06:06:21 0° 82° (E) 2,829 8.7 -10.1°
